Flag for Sudan Weather past 2 weeks in Port Sudan, Sudan

Now
102 °F

Sunny.


Feels Like: 110 °F
Forecast: 85 / 100 °F
Wind: 9 mph from West

Location: Jeddah King Abdul Aziz International Airport

Current Time: Jul 24, 2014 at 2:08:31 PM

Latest Report: Jul 24, 2014 at 1:00 PM


Visibility: 10 mi

Pressure: 29.65 "Hg

Humidity: 35%

Dew point: 70 °F

Location of Port SudanLocation

Historic Weather in Port Sudan — Graph

°F

Port Sudan temperature yesterday

Maximum temperature yesterday: 102 °F (at 1:00 PM)
Minimum temperature yesterday: 86 °F (at 6:00 AM)
Average temperature yesterday: 95 °F

Past Weeks' High & Low Weather Summary

 TemperatureHumidityPressure
High106 °F (Jul 12, 1:00 PM)89% (Jul 13, 6:00 AM)29.77 "Hg (Jul 13, 6:00 AM)
Low81 °F (Jul 22, 6:00 AM)13% (Jul 12, 2:00 PM)29.50 "Hg (Jul 14, 4:00 PM)
Average93 °F47%29.66 "Hg
* Reported Jul 9 4:00 PM — Jul 24 1:00 PM, Port Sudan, Weather by CustomWeather, © 2014

Note: Actual official high and low records may vary slightly from our data, if they occured in-between our weather recording intervals... More about our weather records

Advertising

Port Sudan weather history for previous 24 hours

 ConditionsComfort  
Time TempWeatherWind HumidityBarometerVisibility
1:00 PM
Jul 24
102 °FSunny.9 mph35%29.65 "Hg10 mi
12:00 PM102 °FSunny.12 mph35%29.65 "Hg10 mi
11:00 AM100 °FSunny.9 mph37%29.68 "Hg10 mi
10:00 AM97 °FSunny.7 mph42%29.68 "Hg10 mi
9:00 AM95 °FSunny.7 mph44%29.68 "Hg10 mi
8:00 AM91 °FSunny.7 mph56%29.68 "Hg10 mi
7:00 AM88 °FSunny.7 mph66%29.68 "Hg10 mi
6:00 AM88 °FSunny.7 mph70%29.68 "Hg10 mi
5:00 AM93 °FClear.5 mph49%29.65 "Hg10 mi
4:00 AM90 °FPassing clouds.5 mph55%29.65 "HgN/A
3:00 AM91 °FPassing clouds.7 mph52%29.65 "HgN/A
2:00 AM90 °FPassing clouds.No wind55%29.65 "HgN/A
1:00 AM90 °FClear.8 mph59%29.68 "Hg10 mi
12:00 AM90 °FClear.5 mph55%29.68 "Hg10 mi
11:00 PM
Jul 23
93 °FClear.7 mph41%29.71 "Hg10 mi
10:00 PM95 °FClear.6 mph36%29.68 "Hg10 mi
9:00 PM95 °FClear.8 mph34%29.68 "Hg10 mi
8:00 PM97 °FClear.9 mph28%29.65 "Hg10 mi
7:00 PM97 °FSunny.12 mph30%29.65 "Hg10 mi
6:00 PM100 °FSunny.13 mph27%29.65 "Hg10 mi
5:00 PM102 °FSunny.12 mph27%29.65 "Hg10 mi
4:00 PM100 °FSunny.14 mph29%29.65 "Hg10 mi
3:00 PM102 °FSunny.14 mph27%29.65 "Hg10 mi
2:00 PM102 °FSunny.9 mph27%29.68 "Hg10 mi
Weather by CustomWeather, © 2014

See weather overviewHow to use our weather pages